Weather History for Cheyenne, WY

Change the Weather History Date:

Monday, November 7, 2011

  Actual Average Record
Temperature  
Mean Temperature 27 °F 39 °F  
Max Temperature 32 °F 51 °F 73 °F (1999)
Min Temperature 21 °F 27 °F 5 °F (1990)
Degree Days  
Heating Degree Days 38 26  
Month to date heating degree days 244 174  
Since 1 July heating degree days 995 1033  
Cooling Degree Days 0 0  
Month to date cooling degree days 0 0  
Year to date cooling degree days 431 348  
Moisture  
Dew Point 23 °F    
Average Humidity 75    
Maximum Humidity 92    
Minimum Humidity 58    
Precipitation  
Precipitation 0.00 in 0.02 in 0.25 in (1929)
Month to date precipitation 0.68 0.14  
Year to date precipitation 18.68 15.00  
Snow  
Snow 0.00 in 0.30 in 2.60 in (1929)
Month to date snowfall 9.5 1.6  
Since 1 July snowfall 24.8 7.9  
Snow Depth 0.00 in    
Sea Level Pressure  
Sea Level Pressure 30.08 in    
Wind  
Wind Speed 4 mph (ESE)    
Max Wind Speed 12 mph    
Max Gust Speed 15 mph    
Visibility 9 miles    
Events      
T = Trace of Precipitation, MM = Missing Value Source: NWS Daily Summary

Daily Weather History Graph

Daily Weather History Graph

Search for Another Location

Airport:

Trip Planner

Search our weather history database for the weather conditions in past years. The results will help you decide how hot, cold, wet, or windy it might be!

Date:

Astronomy

Nov. 07, 2011 Rise Set
Actual Time 6:37 AM MST 4:48 PM MST
Civil Twilight 6:08 AM MST 5:17 PM MST
Nautical Twilight 5:35 AM MST 5:49 PM MST
Astronomical Twilight 5:03 AM MST 6:22 PM MST
Moon 3:01 PM MST (11/7) 3:41 AM MST (11/7)
Length of Visible Light 11h 08m
Length of Day
10h 10m
Waxing Gibbous, 92% of the Moon is Illuminated
Nov 7
Waxing Gibbous
Nov 10
Full
Nov 18
Last Quarter
Nov 24
New
Dec 2
First Quarter

Hourly Weather History & Observations

Time (MST) Temp. Windchill Dew Point Humidity Pressure Visibility Wind Dir Wind Speed Gust Speed Precip Events Conditions
12:53 AM 21.2 °F 16.4 °F 12.2 °F 68% 30.02 in 10.0 mi WNW 3.5 mph - N/A   Overcast
1:53 AM 24.1 °F - 14.0 °F 65% 30.09 in 10.0 mi Calm Calm - N/A   Overcast
2:53 AM 24.1 °F 19.7 °F 14.0 °F 65% 30.08 in 10.0 mi WSW 3.5 mph - N/A   Mostly Cloudy
3:53 AM 24.1 °F 18.2 °F 16.0 °F 71% 30.09 in 10.0 mi West 4.6 mph - N/A   Overcast
4:53 AM 26.1 °F - 15.1 °F 63% 30.09 in 10.0 mi Calm Calm - N/A   Overcast
5:53 AM 25.0 °F 20.7 °F 18.0 °F 75% 30.11 in 10.0 mi West 3.5 mph - N/A   Overcast
6:53 AM 28.0 °F - 17.1 °F 63% 30.12 in 10.0 mi Calm Calm - N/A   Overcast
7:53 AM 28.9 °F 22.8 °F 16.0 °F 58% 30.16 in 10.0 mi ESE 5.8 mph - N/A   Overcast
8:53 AM 28.4 °F 24.6 °F 17.6 °F 64% 30.05 in 10.0 mi East 3.5 mph - N/A   Scattered Clouds
9:03 AM 30.2 °F 25.4 °F 19.4 °F 64% 30.05 in 10.0 mi East 4.6 mph - N/A   Mostly Cloudy
9:53 AM 30.2 °F 22.6 °F 24.8 °F 80% 30.06 in 10.0 mi SSE 8.1 mph - N/A   Overcast
10:07 AM 30.2 °F 21.9 °F 26.6 °F 86% 30.06 in 10.0 mi SE 9.2 mph - N/A   Overcast
10:14 AM 28.4 °F 19.7 °F 26.6 °F 93% 30.06 in 10.0 mi SE 9.2 mph - N/A   Overcast
10:53 AM 28.9 °F 21.9 °F 26.1 °F 89% 30.17 in 9.0 mi ESE 6.9 mph - N/A   Overcast
11:46 AM 30.2 °F 23.4 °F 26.6 °F 86% 30.02 in 10.0 mi East 6.9 mph - N/A   Overcast
11:53 AM 30.0 °F 23.2 °F 27.0 °F 88% 30.14 in 9.0 mi East 6.9 mph - N/A   Overcast
12:02 PM 30.2 °F 23.4 °F 26.6 °F 86% 30.01 in 8.0 mi East 6.9 mph - N/A   Overcast
12:17 PM 28.4 °F 21.2 °F 26.6 °F 93% 30.01 in 6.0 mi East 6.9 mph - N/A   Overcast
12:53 PM 28.9 °F 25.2 °F 27.0 °F 92% 30.11 in 6.0 mi ESE 3.5 mph - N/A   Overcast
1:46 PM 30.2 °F 26.7 °F 26.6 °F 86% 29.98 in 10.0 mi Variable 3.5 mph - N/A   Overcast
1:53 PM 30.2 °F 26.7 °F 26.6 °F 86% 29.98 in 10.0 mi Variable 3.5 mph - N/A   Overcast
2:42 PM 32.0 °F 28.7 °F 26.6 °F 80% 29.99 in 10.0 mi NE 3.5 mph - N/A   Overcast
2:53 PM 32.0 °F 28.7 °F 27.0 °F 82% 30.09 in 10.0 mi NE 3.5 mph - N/A   Overcast
3:15 PM 32.0 °F 26.4 °F 26.6 °F 80% 29.99 in 10.0 mi East 5.8 mph - N/A   Overcast
3:53 PM 30.9 °F 24.3 °F 27.0 °F 85% 30.10 in 10.0 mi ESE 6.9 mph - N/A   Overcast
4:04 PM 30.2 °F 22.6 °F 26.6 °F 86% 30.00 in 10.0 mi ESE 8.1 mph - N/A   Overcast
4:44 PM 30.2 °F 22.6 °F 26.6 °F 86% 30.01 in 10.0 mi East 8.1 mph - N/A   Overcast
4:53 PM 30.0 °F 23.2 °F 27.0 °F 88% 30.11 in 9.0 mi ESE 6.9 mph - N/A   Overcast
5:53 PM 30.0 °F - 26.1 °F 85% 30.14 in 10.0 mi Calm Calm - N/A   Overcast
6:53 PM 30.9 °F - 26.1 °F 82% 30.12 in 10.0 mi Calm Calm - N/A   Overcast
7:12 PM 30.2 °F - 26.6 °F 86% 30.04 in 10.0 mi Calm Calm - N/A   Mostly Cloudy
7:53 PM 28.9 °F 25.2 °F 25.0 °F 85% 30.14 in 8.0 mi SSW 3.5 mph - N/A   Partly Cloudy
8:53 PM 25.0 °F 19.3 °F 23.0 °F 92% 30.17 in 8.0 mi West 4.6 mph - N/A   Clear
9:53 PM 24.1 °F 17.0 °F 21.9 °F 91% 30.14 in 8.0 mi WNW 5.8 mph - N/A   Clear
10:53 PM 24.1 °F 19.7 °F 21.0 °F 88% 30.14 in 9.0 mi West 3.5 mph - N/A   Clear
11:53 PM 21.0 °F 16.2 °F 18.0 °F 88% 30.15 in 10.0 mi WNW 3.5 mph - N/A   Clear